• In Hungary
  • List of Countries
  • For 7 days
  • Water Temperature
  • Satellite Maps
  • Weather Map
  • News
  • Weather Widgets
  • user-avatar
    Login

    Hourly Weather Portland

    Today, 23 October, Monday

    Time Temperature Precipitation Wind Pressure Humidity
    00:00 +11°C° 0 mm 1 mps 773 mmHg 90%
    01:00 +11°C° 0 mm 1 mps 774 mmHg 91%
    02:00 +11°C° 0 mm 1 mps 774 mmHg 91%
    03:00 +11°C° 0 mm 1 mps 774 mmHg 91%
    04:00 +11°C° 0 mm 1 mps 774 mmHg 91%
    05:00 +11°C° 0 mm 1 mps 775 mmHg 90%
    06:00 +11°C° 0 mm 1 mps 775 mmHg 90%
    07:00 +11°C° 0 mm 1 mps 775 mmHg 89%
    08:00 +13°C° 0 mm 1 mps 775 mmHg 81%
    09:00 +15°C° 0 mm 1 mps 774 mmHg 73%
    10:00 +16°C° 0 mm 0 mps 774 mmHg 64%
    11:00 +20°C° 0 mm 1 mps 774 mmHg 59%
    12:00 +21°C° 0 mm 1 mps 774 mmHg 54%
    13:00 +22°C° 0 mm 1 mps 774 mmHg 49%
    14:00 +22°C° 0 mm 1 mps 774 mmHg 52%
    15:00 +21°C° 0 mm 1 mps 774 mmHg 56%
    16:00 +21°C° 0 mm 1 mps 774 mmHg 60%
    17:00 +19°C° 0 mm 1 mps 774 mmHg 65%
    18:00 +18°C° 0 mm 1 mps 774 mmHg 70%
    19:00 +15°C° 0 mm 2 mps 774 mmHg 74%
    20:00 +15°C° 0 mm 2 mps 774 mmHg 75%
    21:00 +14°C° 0 mm 2 mps 775 mmHg 75%
    22:00 +14°C° 0 mm 2 mps 775 mmHg 75%
    23:00 +13°C° 0 mm 2 mps 774 mmHg 75%

    Tomorrow, 24 October, Tuesday

    Time Temperature Precipitation Wind Pressure Humidity
    00:00 +13°C° 0 mm 2 mps 774 mmHg 75%
    01:00 +13°C° 0 mm 2 mps 774 mmHg 74%
    02:00 +13°C° 0 mm 2 mps 774 mmHg 74%
    03:00 +13°C° 0 mm 2 mps 774 mmHg 74%
    04:00 +12°C° 0 mm 2 mps 773 mmHg 73%
    05:00 +12°C° 0 mm 2 mps 773 mmHg 73%
    06:00 +12°C° 0 mm 2 mps 773 mmHg 73%
    07:00 +12°C° 0 mm 2 mps 772 mmHg 72%
    08:00 +14°C° 0 mm 2 mps 772 mmHg 65%
    09:00 +17°C° 0 mm 2 mps 772 mmHg 59%
    10:00 +19°C° 0 mm 2 mps 771 mmHg 52%
    11:00 +21°C° 0 mm 2 mps 771 mmHg 49%
    12:00 +23°C° 0 mm 2 mps 770 mmHg 46%
    13:00 +25°C° 0 mm 2 mps 769 mmHg 43%
    14:00 +24°C° 0 mm 2 mps 769 mmHg 47%
    15:00 +24°C° 0 mm 2 mps 768 mmHg 51%
    16:00 +23°C° 0 mm 2 mps 768 mmHg 56%
    17:00 +20°C° 0 mm 2 mps 767 mmHg 61%
    18:00 +18°C° 0 mm 2 mps 767 mmHg 66%
    19:00 +16°C° 0 mm 2 mps 767 mmHg 71%
    20:00 +15°C° 0 mm 2 mps 767 mmHg 71%
    21:00 +15°C° 0 mm 1 mps 767 mmHg 71%
    22:00 +14°C° 0 mm 1 mps 767 mmHg 72%
    23:00 +14°C° 0 mm 1 mps 767 mmHg 72%

    Day after tomorrow, 25 October, Wednesday

    Time Temperature Precipitation Wind Pressure Humidity
    00:00 +14°C° 0 mm 1 mps 767 mmHg 72%
    01:00 +13°C° 0 mm 1 mps 766 mmHg 72%
    02:00 +13°C° 0 mm 1 mps 766 mmHg 72%
    03:00 +13°C° 0 mm 1 mps 766 mmHg 72%
    04:00 +13°C° 0 mm 1 mps 766 mmHg 72%
    05:00 +12°C° 0 mm 1 mps 766 mmHg 72%
    06:00 +12°C° 0 mm 1 mps 766 mmHg 73%
    07:00 +12°C° 0 mm 1 mps 766 mmHg 73%
    08:00 +14°C° 0 mm 1 mps 766 mmHg 67%
    09:00 +16°C° 0 mm 0 mps 766 mmHg 61%
    10:00 +18°C° 0 mm 0 mps 766 mmHg 55%
    11:00 +21°C° 0 mm 1 mps 765 mmHg 54%
    12:00 +22°C° 0 mm 1 mps 765 mmHg 53%
    13:00 +23°C° 0 mm 1 mps 765 mmHg 52%
    14:00 +23°C° 0 mm 1 mps 764 mmHg 56%
    15:00 +22°C° 0 mm 1 mps 764 mmHg 60%
    16:00 +21°C° 0 mm 1 mps 764 mmHg 65%
    17:00 +20°C° 0 mm 1 mps 764 mmHg 69%
    18:00 +19°C° 0 mm 1 mps 764 mmHg 72%
    19:00 +16°C° 0 mm 0 mps 764 mmHg 76%
    20:00 +16°C° 0 mm 0 mps 764 mmHg 79%
    21:00 +16°C° 0 mm 1 mps 764 mmHg 81%
    22:00 +16°C° 0 mm 1 mps 765 mmHg 83%
    23:00 +16°C° 0 mm 1 mps 764 mmHg 84%

    26 October, Thursday

    Time Temperature Precipitation Wind Pressure Humidity
    00:00 +15°C° 0 mm 1 mps 764 mmHg 86%
    01:00 +15°C° 0 mm 1 mps 764 mmHg 88%
    02:00 +15°C° 0 mm 1 mps 764 mmHg 89%
    03:00 +15°C° 0 mm 1 mps 764 mmHg 90%
    04:00 +14°C° 0 mm 1 mps 764 mmHg 91%
    05:00 +14°C° 0 mm 1 mps 764 mmHg 92%
    06:00 +14°C° 0 mm 1 mps 764 mmHg 92%
    07:00 +14°C° 0 mm 1 mps 764 mmHg 93%
    08:00 +16°C° 0 mm 2 mps 764 mmHg 84%
    09:00 +18°C° 0 mm 2 mps 764 mmHg 76%
    10:00 +20°C° 0 mm 2 mps 764 mmHg 68%
    11:00 +21°C° 0 mm 2 mps 764 mmHg 62%
    12:00 +24°C° 0 mm 2 mps 763 mmHg 57%
    13:00 +25°C° 0 mm 2 mps 763 mmHg 51%
    14:00 +25°C° 0 mm 2 mps 763 mmHg 54%
    15:00 +24°C° 0 mm 2 mps 762 mmHg 57%
    16:00 +24°C° 0 mm 2 mps 762 mmHg 60%
    17:00 +21°C° 0 mm 2 mps 762 mmHg 64%
    18:00 +19°C° 0 mm 2 mps 763 mmHg 69%
    19:00 +18°C° 0 mm 2 mps 763 mmHg 74%
    20:00 +17°C° 0 mm 2 mps 763 mmHg 74%
    21:00 +17°C° 0 mm 2 mps 763 mmHg 74%
    22:00 +16°C° 0 mm 2 mps 763 mmHg 74%
    23:00 +16°C° 0 mm 2 mps 763 mmHg 74%

    27 October, Friday

    Time Temperature Precipitation Wind Pressure Humidity
    00:00 +16°C° 0 mm 2 mps 763 mmHg 74%
    01:00 +16°C° 0 mm 2 mps 763 mmHg 74%
    02:00 +15°C° 0 mm 2 mps 763 mmHg 74%
    03:00 +15°C° 0 mm 2 mps 763 mmHg 73%
    04:00 +15°C° 0 mm 1 mps 763 mmHg 73%
    05:00 +15°C° 0 mm 1 mps 764 mmHg 73%
    06:00 +15°C° 0 mm 1 mps 764 mmHg 73%
    07:00 +15°C° 0 mm 1 mps 764 mmHg 73%
    08:00 +18°C° 0 mm 1 mps 764 mmHg 67%
    09:00 +20°C° 0 mm 1 mps 764 mmHg 60%
    10:00 +22°C° 0 mm 1 mps 764 mmHg 54%
    11:00 +24°C° 0 mm 1 mps 764 mmHg 51%
    12:00 +25°C° 0 mm 1 mps 764 mmHg 48%
    13:00 +26°C° 0 mm 1 mps 763 mmHg 44%
    14:00 +26°C° 0 mm 1 mps 763 mmHg 49%
    15:00 +25°C° 0 mm 1 mps 763 mmHg 53%
    16:00 +24°C° 0 mm 1 mps 763 mmHg 57%
    17:00 +23°C° 0 mm 1 mps 763 mmHg 60%
    18:00 +21°C° 0 mm 1 mps 763 mmHg 64%
    19:00 +19°C° 0 mm 1 mps 764 mmHg 68%
    20:00 +19°C° 0 mm 1 mps 764 mmHg 68%
    21:00 +18°C° 0 mm 1 mps 764 mmHg 68%
    22:00 +18°C° 0 mm 1 mps 764 mmHg 68%
    23:00 +16°C° 0 mm 1 mps 764 mmHg 68%

    28 October, Saturday

    Time Temperature Precipitation Wind Pressure Humidity
    00:00 +16°C° 0 mm 1 mps 764 mmHg 68%
    01:00 +15°C° 0 mm 1 mps 764 mmHg 68%
    02:00 +15°C° 0 mm 1 mps 764 mmHg 69%
    03:00 +15°C° 0 mm 1 mps 764 mmHg 69%
    04:00 +15°C° 0 mm 1 mps 764 mmHg 69%
    05:00 +15°C° 0 mm 1 mps 764 mmHg 69%
    06:00 +14°C° 0 mm 1 mps 764 mmHg 69%
    07:00 +14°C° 0 mm 1 mps 764 mmHg 69%
    08:00 +18°C° 0 mm 1 mps 764 mmHg 63%
    09:00 +20°C° 0 mm 1 mps 764 mmHg 56%
    10:00 +22°C° 0 mm 1 mps 763 mmHg 50%
    11:00 +24°C° 0 mm 1 mps 763 mmHg 47%
    12:00 +25°C° 0 mm 1 mps 763 mmHg 44%
    13:00 +27°C° 0 mm 1 mps 762 mmHg 41%
    14:00 +26°C° 0 mm 1 mps 762 mmHg 46%
    15:00 +25°C° 0 mm 1 mps 762 mmHg 51%
    16:00 +22°C° 0 mm 0 mps 762 mmHg 56%
    17:00 +22°C° 0 mm 1 mps 762 mmHg 61%
    18:00 +21°C° 0 mm 1 mps 762 mmHg 65%
    19:00 +19°C° 0 mm 1 mps 762 mmHg 70%
    20:00 +18°C° 0 mm 1 mps 763 mmHg 71%
    21:00 +18°C° 0 mm 1 mps 763 mmHg 72%
    22:00 +16°C° 0 mm 1 mps 763 mmHg 73%
    23:00 +16°C° 0 mm 1 mps 763 mmHg 74%

    29 October, Sunday

    Time Temperature Precipitation Wind Pressure Humidity
    00:00 +16°C° 0 mm 1 mps 763 mmHg 74%
    01:00 +15°C° 0 mm 1 mps 763 mmHg 74%
    02:00 +15°C° 0 mm 1 mps 763 mmHg 75%
    03:00 +15°C° 0 mm 1 mps 763 mmHg 75%
    04:00 +14°C° 0 mm 0 mps 763 mmHg 76%
    05:00 +13°C° 0 mm 0 mps 763 mmHg 76%
    06:00 +13°C° 0 mm 0 mps 763 mmHg 77%
    07:00 +13°C° 0 mm 0 mps 763 mmHg 77%
    08:00 +15°C° 0 mm 0 mps 763 mmHg 70%
    09:00 +17°C° 0 mm 0 mps 763 mmHg 63%
    10:00 +19°C° 0 mm 0 mps 763 mmHg 57%
    11:00 +20°C° 0 mm 0 mps 763 mmHg 54%
    12:00 +21°C° 0 mm 0 mps 763 mmHg 52%
    13:00 +24°C° 0 mm 1 mps 763 mmHg 49%
    14:00 +24°C° 0 mm 1 mps 763 mmHg 54%
    15:00 +23°C° 0 mm 1 mps 762 mmHg 58%
    16:00 +20°C° 0 mm 0 mps 762 mmHg 62%
    17:00 +21°C° 0 mm 1 mps 763 mmHg 68%
    18:00 +19°C° 0 mm 1 mps 763 mmHg 74%
    19:00 +16°C° 0 mm 1 mps 764 mmHg 80%
    20:00 +15°C° 0 mm 1 mps 764 mmHg 80%
    21:00 +15°C° 0 mm 1 mps 764 mmHg 80%
    22:00 +14°C° 0 mm 1 mps 764 mmHg 81%
    Show more